Weather WX

World > North America > United States > Mississippi

Johnson, Mississippi Regional Weather

Lat: 31.54N, Lon: 89.14W
Wx Zone: MSZ066
Warning FLW WEATHER ALERT - (More Info. Click Here) Warning
Feedback

Johnson, MS Regional Weather

Expires:201906190000;;702490
ASUS44 KJAN 182310
RWRMS 

MISSISSIPPI HOURLY WEATHER ROUNDUP
NATIONAL WEATHER SERVICE JACKSON MS
600 PM CDT TUE JUN 18 2019

NOTE: "FAIR: INDICATES FEW OR NO CLOUDS BELOW 12,000 FEET WITH NO
SIGNIFICANT WEATHER AND/OR OBSTRUCTIONS TO VISIBILITY.


MSZ059>079-190000-
SOUTH MISSISSIPPI
  
CITY           SKY/WX    TMP DP  RH WIND       PRES   REMARKS
HATTIESBURG    FAIR      88  71  57 SW3       29.86F HX  94           
LAUREL         MOCLDY    85  75  70 S9        29.86S HX  93           
MCCOMB         FAIR      88  70  55 VRB3      29.86F HX  93           
NATCHEZ        FAIR      88  71  57 SW6       29.86F HX  94           
PINE BELT      PTSUNNY   83  75  77 S3        29.87F HX  90           
$$


SKY/WX - Weather  TMP - Temperature  DP - Dew Point  RH - Relative Humidity
WIND - Wind Direction/Speed PRES - Barometric Pressure VSB - Visibility
WCI - Wind Chill Index E13G22 Wind - East Wind 13 mph/Gusts of 22 mph